Waarnemingen

Advertentie
Mijn weer
Norrkoping, Zweden (2574): temperatuur & dauwpunt: 12.11.2018 17:00:00 - 18.11.2018 17:00:00 (CET)Norrkoping, Zweden (2574): windsnelheid & windstoten: 12.11.2018 17:00:00 - 18.11.2018 17:00:00 (CET)Norrkoping, Zweden (2574): windrichting: 12.11.2018 17:00:00 - 18.11.2018 17:00:00 (CET)Norrkoping, Zweden (2574): luchtdruk: 12.11.2018 17:00:00 - 18.11.2018 17:00:00 (CET)Norrkoping, Zweden (2574): zicht: 12.11.2018 17:00:00 - 18.11.2018 17:00:00 (CET)Norrkoping, Zweden (2574): neerslag: 12.11.2018 17:00:00 - 18.11.2018 17:00:00 (CET)
Datum & Tijd tt [°C] td [°C] ff [km/u] ff [kn] fx [km/u] fx [kn] dd ppp [hPa] vv [km] rr [mm]
18.11.2018 17:00:00 5,3 1,2 16 8 31 17 NNO 1038,7 50 0,0
18.11.2018 16:00:00 5,8 1,7 14 8 33 18 N 1038,8 50 0,0
18.11.2018 15:00:00 6,0 1,9 13 7 28 15 NNO 1038,9 50 0,0
18.11.2018 14:00:00 6,1 2,0 13 7 29 15 NNO 1039,1 50 0,0
18.11.2018 13:00:00 6,1 2,6 16 8 34 18 NNO 1038,9 50 0,0
18.11.2018 12:00:00 5,8 2,6 16 9 29 16 NNO 1038,9 50 0,0
18.11.2018 11:00:00 5,4 2,7 14 8 25 14 N 1039,1 50 0,0
18.11.2018 10:00:00 4,8 2,7 14 8 26 14 NNO 1039,6 50 0,0
18.11.2018 09:00:00 3,9 2,1 12 7 28 15 NNO 1039,2 50 0,0
18.11.2018 08:00:00 3,6 1,6 11 6 22 12 NNO 1038,9 50 0,0
18.11.2018 07:00:00 3,5 1,5 10 6 20 11 NNO 1038,5 50 0,0
18.11.2018 06:00:00 3,3 1,8 14 7 28 15 NNO 1038,4 50 0,0
18.11.2018 05:00:00 3,0 1,8 9 5 18 10 N 1037,6 45 0,0
18.11.2018 04:00:00 3,3 2,1 6 4 14 8 N 1037,5 38 0,0
18.11.2018 03:00:00 3,6 2,3 6 3 16 9 N 1037,7 36 0,0
18.11.2018 02:00:00 4,1 2,9 7 4 19 10 N 1038,0 32 0,0
18.11.2018 01:00:00 2,5 2,1 3 1 13 7 NW 1038,1 9 0,0
18.11.2018 00:00:00 3,4 3,0 7 4 18 10 NW 1037,9 9 0,0
17.11.2018 23:00:00 4,1 3,5 6 3 17 9 WNW 1037,8 8 0,0
17.11.2018 22:00:00 5,1 4,2 9 5 18 10 WNW 1037,8 11 0,0
17.11.2018 21:00:00 5,2 4,2 7 4 16 9 WNW 1038,0 13 0,0
17.11.2018 20:00:00 5,3 4,1 6 4 19 11 WNW 1038,3 14 0,0
17.11.2018 19:00:00 6,1 4,3 12 7 23 12 NW 1038,1 19 0,0
17.11.2018 18:00:00 6,7 4,7 9 5 18 10 WNW 1038,1 14 0,0
17.11.2018 17:00:00 6,8 5,0 6 3 16 9 WNW 1038,6 15 0,0
17.11.2018 16:00:00 6,7 4,9 8 4 17 9 WNW 1038,9 17 0,0
17.11.2018 15:00:00 6,9 4,7 8 5 18 10 W 1039,2 14 0,0
17.11.2018 14:00:00 6,8 4,6 9 5 18 10 W 1039,1 14 0,0
17.11.2018 13:00:00 6,7 4,5 9 5 19 11 W 1039,5 14 0,0
17.11.2018 12:00:00 6,3 4,3 11 6 20 11 WZW 1039,7 13 0,0
17.11.2018 11:00:00 6,0 4,2 5 3 11 6 W 1040,4 12 0,0
17.11.2018 10:00:00 5,5 4,0 5 3 16 9 W 1040,1 12 0,0
17.11.2018 09:00:00 4,6 3,4 6 3 14 8 WZW 1040,1 12 0,0
17.11.2018 08:00:00 4,0 3,0 11 6 22 12 WZW 1039,5 11 0,0
17.11.2018 07:00:00 3,1 2,4 11 6 22 12 WZW 1039,3 9 0,0
17.11.2018 06:00:00 3,0 2,1 12 7 18 10 WZW 1039,7 12 0,0
17.11.2018 05:00:00 3,0 2,0 9 5 20 11 ZW 1039,6 16 0,0
17.11.2018 04:00:00 3,2 2,0 9 5 17 9 WZW 1039,6 18 0,0
17.11.2018 03:00:00 3,5 2,2 10 5 18 10 ZW 1039,6 20 0,0
17.11.2018 02:00:00 3,4 2,4 6 4 13 7 ZW 1040,0 18 0,0
17.11.2018 01:00:00 3,2 2,3 4 2 13 7 WZW 1039,8 18 0,0
17.11.2018 00:00:00 3,4 2,5 5 3 9 5 ZW 1039,4 19 0,0
16.11.2018 23:00:00 3,2 2,2 3 1 13 7 WNW 1039,4 17 0,0
16.11.2018 22:00:00 4,3 2,8 6 3 12 6 ZZW 1038,9 31 0,0
16.11.2018 21:00:00 4,9 2,9 3 2 14 7 ZZW 1039,0 33 0,0
16.11.2018 20:00:00 5,6 3,1 7 4 23 12 ZZW 1038,3 39 0,0
16.11.2018 19:00:00 6,1 3,4 10 5 20 11 ZZW 1038,0 39 0,0
16.11.2018 18:00:00 6,3 3,3 9 5 19 10 ZZW 1037,8 43 0,0
16.11.2018 17:00:00 7,0 3,6 8 5 16 9 ZZW 1037,2 42 0,0
16.11.2018 16:00:00 7,3 3,7 7 4 15 8 Z 1037,1 42 0,0
16.11.2018 15:00:00 8,4 4,2 7 4 16 9 ZZW 1037,0 36 0,0
16.11.2018 14:00:00 8,9 4,3 9 5 18 10 ZZW 1037,0 36 0,0
16.11.2018 13:00:00 8,6 4,2 10 5 18 10 ZW 1036,8 31 0,0
16.11.2018 12:00:00 8,5 4,3 7 4 17 9 ZZW 1036,9 25 0,0
16.11.2018 11:00:00 7,7 4,1 9 5 21 12 ZW 1037,0 25 0,0
16.11.2018 10:00:00 7,3 4,3 11 6 21 11 ZZW 1036,6 27 0,0
16.11.2018 09:00:00 6,7 4,0 8 4 23 12 WZW 1036,3 35 0,0
16.11.2018 08:00:00 7,1 4,2 11 6 21 11 ZW 1035,6 30 0,0
16.11.2018 07:00:00 7,7 5,5 10 5 18 10 ZW 1035,0 23 0,0
16.11.2018 06:00:00 7,9 6,0 8 4 17 9 ZW 1034,5 20 0,0
16.11.2018 05:00:00 8,4 6,5 9 5 15 8 ZW 1033,9 18 0,0
16.11.2018 04:00:00 8,6 7,1 6 4 16 9 Z 1033,7 14 0,0
16.11.2018 03:00:00 9,0 7,3 8 5 16 8 ZW 1033,2 12 0,0
16.11.2018 02:00:00 9,1 7,2 8 4 16 9 ZW 1033,0 13 0,0
16.11.2018 01:00:00 9,2 7,1 8 4 19 10 ZW 1032,5 15 0,0
16.11.2018 00:00:00 9,6 7,2 11 6 20 11 ZZW 1032,3 16 0,0
15.11.2018 23:00:00 9,9 7,3 8 4 16 9 ZW 1031,8 19 0,0
15.11.2018 22:00:00 9,9 7,3 8 4 19 10 ZZW 1031,3 20 0,0
15.11.2018 21:00:00 10,2 7,3 9 5 21 11 ZW 1030,8 25 0,0
15.11.2018 20:00:00 10,3 7,4 13 7 22 12 ZW 1030,4 31 0,0
15.11.2018 19:00:00 10,3 7,5 11 6 19 10 ZW 1030,1 29 0,0
15.11.2018 18:00:00 10,2 7,4 9 5 18 10 ZW 1029,6 32 0,0
15.11.2018 17:00:00 10,2 7,4 10 6 21 11 ZW 1029,6 38 0,0
15.11.2018 16:00:00 9,9 7,7 8 4 16 9 ZW 1029,4 14 0,0
15.11.2018 15:00:00 10,1 7,9 8 4 18 10 ZW 1029,1 11 0,0
15.11.2018 14:00:00 9,9 8,0 5 3 16 9 ZZW 1028,6 37 0,0
15.11.2018 13:00:00 9,8 7,7 9 5 21 11 ZW 1028,3 45 0,0
15.11.2018 12:00:00 10,0 7,6 9 5 21 12 ZW 1028,0 41 0,0
15.11.2018 11:00:00 9,6 7,4 11 6 21 11 ZW 1027,6 35 0,0
15.11.2018 10:00:00 8,7 7,0 10 6 21 12 ZW 1027,5 26 0,0
15.11.2018 09:00:00 8,5 7,0 9 5 16 9 ZW 1027,3 27 0,0
15.11.2018 08:00:00 7,6 6,7 6 3 12 6 ZZW 1027,1 22 0,0
15.11.2018 07:00:00 4,8 4,4 0 0 11 6 N 1027,0 10 0,0
15.11.2018 06:00:00 6,2 5,9 3 2 9 5 ZZW 1026,6 17 0,0
15.11.2018 05:00:00 4,8 4,5 0 0 6 3 N 1026,6 12 0,0
15.11.2018 04:00:00 4,4 4,1 0 0 6 3 N 1026,6 10 0,0
15.11.2018 03:00:00 4,8 4,2 2 1 9 5 Z 1026,3 16 0,0
15.11.2018 02:00:00 5,7 5,0 6 3 13 7 ZZW 1026,0 24 0,0
15.11.2018 01:00:00 5,9 5,0 8 4 17 9 ZW 1026,0 29 0,0
15.11.2018 00:00:00 6,3 5,1 7 4 16 8 ZW 1025,9 39 0,0
14.11.2018 23:00:00 6,8 5,3 7 4 14 7 ZZW 1025,3 41 0,0
14.11.2018 22:00:00 6,8 5,3 8 4 15 8 ZW 1025,1 39 0,0
14.11.2018 21:00:00 6,3 4,9 5 3 16 8 ZZW 1025,0 43 0,0
14.11.2018 20:00:00 6,9 5,2 8 4 14 8 ZZW 1024,8 38 0,0
14.11.2018 19:00:00 7,0 5,1 6 4 12 7 ZZW 1024,4 49 0,0
14.11.2018 18:00:00 7,5 5,3 7 4 12 7 ZW 1024,3 47 0,0
14.11.2018 17:00:00 7,7 5,2 7 4 19 10 WZW 1024,3 42 0,0
14.11.2018 16:00:00 8,1 5,6 7 4 13 7 ZW 1023,8 40 0,0
14.11.2018 15:00:00 8,3 5,4 5 3 18 10 WZW 1023,4 38 0,0
14.11.2018 14:00:00 8,4 5,9 6 4 19 11 WZW 1023,3 39 0,0
14.11.2018 13:00:00 8,4 5,5 9 5 19 11 WZW 1022,9 36 0,0
14.11.2018 12:00:00 8,3 5,6 8 4 19 11 W 1022,4 45 0,0
14.11.2018 11:00:00 8,2 6,3 6 4 17 9 WZW 1021,9 40 0,0
14.11.2018 10:00:00 8,2 6,7 5 3 13 7 W 1021,3 37 0,0
14.11.2018 09:00:00 7,6 6,4 5 3 21 11 WNW 1020,5 19 0,0
14.11.2018 08:00:00 7,4 6,7 7 4 14 7 WZW 1019,8 26 0,0
14.11.2018 07:00:00 7,5 6,6 7 4 12 7 WZW 1019,0 22 0,0
14.11.2018 06:00:00 7,4 6,7 7 4 13 7 WZW 1018,5 14 0,0
14.11.2018 05:00:00 7,5 6,9 7 4 14 7 WZW 1018,0 9 0,0
14.11.2018 04:00:00 7,2 6,6 6 3 13 7 WZW 1017,4 9 0,0
14.11.2018 03:00:00 7,1 6,5 4 2 8 5 WZW 1016,8 11 0,0
14.11.2018 02:00:00 7,0 6,4 5 3 13 7 ZW 1016,4 11 0,0
14.11.2018 01:00:00 6,7 6,1 5 3 10 5 ZW 1015,8 11 0,0
14.11.2018 00:00:00 6,6 6,0 5 3 9 5 ZW 1015,5 13 0,0
13.11.2018 23:00:00 7,3 6,4 3 2 8 5 ZW 1015,2 23 0,0
13.11.2018 22:00:00 7,6 6,5 6 3 12 6 Z 1014,9 45 0,0
13.11.2018 21:00:00 7,8 6,4 5 3 13 7 Z 1014,9 50 0,0
13.11.2018 20:00:00 7,6 6,4 8 4 15 8 Z 1014,8 50 0,0
13.11.2018 19:00:00 7,9 6,5 8 4 14 8 Z 1014,9 50 0,0
13.11.2018 18:00:00 7,8 6,4 5 3 12 6 Z 1015,0 50 0,0
13.11.2018 17:00:00 7,8 6,3 5 3 13 7 ZZW 1014,9 50 0,0
13.11.2018 16:00:00 8,8 6,8 8 4 19 10 ZZW 1014,9 50 0,0
13.11.2018 15:00:00 9,3 6,9 6 4 14 8 WZW 1014,8 50 0,0
13.11.2018 14:00:00 9,7 6,8 8 4 18 10 ZW 1014,3 50 0,0
13.11.2018 13:00:00 10,0 7,1 9 5 18 10 ZW 1014,4 50 0,0
13.11.2018 12:00:00 9,8 7,6 9 5 17 9 ZW 1014,8 44 0,0
13.11.2018 11:00:00 8,3 8,0 7 4 15 8 ZZW 1015,1 13 0,0
13.11.2018 10:00:00 7,1 7,0 7 4 12 7 ZW 1015,0 6 0,0
13.11.2018 09:00:00 6,8 6,7 4 2 13 7 ZW 1014,5 2,0 0,0
13.11.2018 08:00:00 6,6 6,5 2 1 7 4 ZW 1013,7 5 0,0
13.11.2018 07:00:00 7,1 7,0 4 2 8 4 WZW 1013,9 8 0,0
13.11.2018 06:00:00 7,0 6,9 4 2 8 4 WZW 1013,3 5 0,3
13.11.2018 05:00:00 7,0 6,9 5 3 9 5 WZW 1013,3 0,7 0,0
13.11.2018 04:00:00 6,8 6,7 4 2 8 4 W 1013,0 0,6 0,0
13.11.2018 03:00:00 7,1 7,0 2 1 3 2 Z 1012,6 0,6 0,3
13.11.2018 02:00:00 7,2 7,1 0 0 2 1 N 1013,0 0,7 1,0
13.11.2018 01:00:00 7,4 7,3 0 0 6 3 N 1013,2 3,4 0,6
13.11.2018 00:00:00 7,6 7,3 3 2 6 3 O 1013,4 4,6 0,7
12.11.2018 23:00:00 7,6 7,3 3 2 5 3 O 1014,0 6 0,4
12.11.2018 22:00:00 7,8 7,2 0 0 5 3 N 1014,5 10 0,3
12.11.2018 21:00:00 8,3 7,2 3 1 11 6 ZW 1014,9 34 0,0
12.11.2018 20:00:00 8,5 7,3 6 3 12 6 ZZO 1014,7 44 0,0
12.11.2018 19:00:00 8,6 7,5 7 4 14 8 Z 1014,7 36 0,0
12.11.2018 18:00:00 8,6 7,4 5 3 11 6 Z 1015,2 39 0,0
12.11.2018 17:00:00 8,9 7,5 3 2 13 7 Z 1015,5 39 0,0

tt = temperatuur
td = dauwpunt
ff = windsnelheid
fx = windstoten
dd = windrichting
ppp = luchtdruk
vv = zicht
rr = neerslag

Weerstations in de omgeving